KQ4VHC Weather Reports


time (UTC)temp
C
wind
direction
speed
KPH
gust
KPH
rain 1hr
cm
rain 24hr
cm
rain mn
cm
humidity
%
barometer
mb
20260510064552 13 134 0.0 0.0 0.00 0.00 0.00 72 1010.8
20260510064007 12 56 0.0 0.0 0.00 0.00 0.00 71 1010.8
20260510063510 13 56 0.0 1.6 0.00 0.00 0.00 71 1010.7
20260510063038 13 61 0.0 1.6 0.00 0.00 0.00 71 1010.7
20260510062506 13 61 0.0 1.6 0.00 0.00 0.00 70 1010.6
20260510062007 13 74 0.0 1.6 0.00 0.00 0.00 69 1010.7
20260510061532 14 74 0.0 1.6 0.00 0.00 0.00 68 1010.7
20260510061007 14 172 0.0 0.0 0.00 0.00 0.00 65 1010.7
20260510060509 14 172 0.0 1.6 0.00 0.00 0.00 65 1010.7
20260510060038 15 172 0.0 4.8 0.00 0.00 0.00 64 1010.6
20260510055507 15 196 0.0 4.8 0.00 0.00 0.00 63 1010.6
20260510055007 15 234 0.0 4.8 0.00 0.00 0.00 62 1010.6
20260510054528 15 238 0.0 3.2 0.00 0.00 0.00 63 1010.5
20260510054008 15 252 1.6 4.8 0.00 0.00 0.00 63 1010.5
20260510053504 15 254 1.6 6.4 0.00 0.00 0.00 64 1010.5
20260510053005 15 226 3.2 6.4 0.00 0.00 0.00 65 1010.5
20260510052503 14 231 1.6 3.2 0.00 0.00 0.00 67 1010.5
20260510052005 14 208 0.0 1.6 0.00 0.00 0.00 66 1010.6
20260510051505 14 207 0.0 1.6 0.00 0.00 0.00 65 1010.6
20260510051004 14 143 0.0 4.8 0.00 0.00 0.00 66 1010.7
20260510050503 13 76 0.0 8.0 0.00 0.00 0.00 69 1010.6
20260510050006 13 76 0.0 8.0 0.00 0.00 0.00 73 1010.6
20260510045506 12 257 0.0 1.6 0.00 0.00 0.00 79 1010.6
20260510045005 12 254 0.0 3.2 0.00 0.00 0.00 79 1010.7
20260510044508 12 236 1.6 3.2 0.00 0.00 0.00 81 1010.8
20260510044004 12 230 1.6 3.2 0.00 0.00 0.00 79 1010.8
20260510043504 12 248 0.0 0.0 0.00 0.00 0.00 79 1010.8
20260510043005 12 248 0.0 0.0 0.00 0.00 0.00 81 1010.8
20260510042503 12 248 0.0 0.0 0.00 0.00 0.00 82 1010.8
20260510042005 12 251 0.0 0.0 0.00 0.00 0.00 83 1010.9
20260510041504 12 250 0.0 0.0 0.00 0.00 0.00 82 1010.8
20260510041005 12 269 0.0 1.6 0.00 0.00 0.00 82 1010.8
20260510040504 12 269 0.0 1.6 0.00 0.00 0.00 82 1010.8
20260510040006 12 250 0.0 1.6 0.00 0.00 0.00 82 1010.8
20260510035503 13 253 0.0 3.2 0.00 0.00 0.00 81 1010.8
20260510035003 13 257 1.6 3.2 0.00 0.00 0.00 79 1010.8
20260510034507 14 264 1.6 3.2 0.00 0.00 0.00 77 1010.9
20260510034005 14 265 1.6 3.2 0.00 0.00 0.00 77 1010.9
20260510033502 14 260 1.6 4.8 0.00 0.00 0.00 75 1010.8
20260510033008 14 265 1.6 4.8 0.00 0.00 0.00 76 1010.8
20260510032505 14 271 1.6 4.8 0.00 0.00 0.00 78 1010.8
20260510032004 13 269 1.6 3.2 0.00 0.00 0.00 81 1010.7
20260510031506 13 264 1.6 3.2 0.00 0.00 0.00 82 1010.7
20260510031003 13 264 1.6 3.2 0.00 0.00 0.00 82 1010.7
20260510030504 13 240 0.0 4.8 0.00 0.00 0.00 81 1010.6
20260510030009 14 248 0.0 4.8 0.00 0.00 0.00 79 1010.6
20260510025504 13 264 1.6 4.8 0.00 0.00 0.00 80 1010.6
20260510025004 13 277 3.2 4.8 0.00 0.00 0.00 83 1010.6
20260510024504 13 269 3.2 4.8 0.00 0.00 0.00 84 1010.6
20260510024003 13 267 1.6 3.2 0.00 0.00 0.00 83 1010.4
20260510023503 13 269 0.0 3.2 0.00 0.00 0.00 83 1010.3
20260510023007 13 269 0.0 3.2 0.00 0.00 0.00 83 1010.2
20260510022503 13 256 0.0 3.2 0.00 0.00 0.00 82 1010.1
20260510022002 13 246 0.0 1.6 0.00 0.00 0.00 80 1010.0
20260510021509 14 269 0.0 3.2 0.00 0.00 0.00 80 1009.9
20260510021005 14 269 0.0 3.2 0.00 0.00 0.00 81 1010.1
20260510020501 14 266 1.6 3.2 0.00 0.00 0.00 81 1010.0
20260510020006 14 259 0.0 0.0 0.00 0.00 0.00 80 1009.9
20260510015503 14 269 0.0 3.2 0.00 0.00 0.00 80 1009.8
20260510015003 14 269 1.6 3.2 0.00 0.00 0.00 80 1009.8
20260510014506 15 264 0.0 1.6 0.00 0.00 0.00 79 1009.6
20260510014003 15 264 0.0 1.6 0.00 0.00 0.00 77 1009.6
20260510013503 16 264 0.0 1.6 0.00 0.00 0.00 75 1009.5
20260510013006 16 271 0.0 3.2 0.00 0.00 0.00 72 1009.4
20260510012502 17 271 1.6 4.8 0.00 0.00 0.00 70 1009.5
20260510012003 17 264 1.6 4.8 0.00 0.00 0.00 69 1009.4
20260510011508 17 276 1.6 3.2 0.00 0.00 0.00 70 1009.3
20260510011002 17 278 1.6 3.2 0.00 0.00 0.00 72 1009.3
20260510010502 16 273 1.6 3.2 0.00 0.00 0.00 73 1009.3
20260510010007 16 269 0.0 1.6 0.00 0.00 0.00 74 1009.2
20260510005503 16 269 1.6 1.6 0.00 0.00 0.00 76 1009.2
20260510005001 16 267 0.0 1.6 0.00 0.00 0.00 74 1009.0
20260510004507 16 278 0.0 0.0 0.00 0.00 0.00 74 1008.9
20260510004006 17 278 0.0 0.0 0.00 0.00 0.00 73 1008.8
20260510003505 17 278 0.0 0.0 0.00 0.00 0.00 72 1008.8
20260510003008 17 278 0.0 0.0 0.00 0.00 0.00 71 1008.6
20260510002503 17 278 0.0 0.0 0.00 0.00 0.00 71 1008.6
20260510002006 18 278 0.0 0.0 0.00 0.00 0.00 69 1008.6
20260510001508 18 278 0.0 0.0 0.00 0.00 0.00 68 1008.6
20260510001003 18 278 0.0 0.0 0.00 0.00 0.00 66 1008.5
20260510000504 19 278 0.0 0.0 0.00 0.00 0.00 65 1008.4
20260510000007 19 278 0.0 0.0 0.00 0.00 0.00 63 1008.2
20260509235505 20 278 0.0 0.0 0.00 0.00 0.00 62 1008.2
20260509235003 20 278 0.0 0.0 0.00 0.00 0.00 61 1008.2
20260509234518 20 278 0.0 0.0 0.00 0.00 0.00 59 1008.2
20260509234001 21 278 0.0 1.6 0.00 0.00 0.00 57 1008.2
20260509233503 21 278 0.0 1.6 0.00 0.00 0.00 56 1008.2
20260509233019 21 278 0.0 4.8 0.00 0.00 0.00 55 1008.2
20260509232503 21 278 1.6 4.8 0.00 0.00 0.00 54 1008.2
20260509232002 21 264 3.2 4.8 0.00 0.00 0.00 54 1008.1
20260509231513 21 280 1.6 4.8 0.00 0.00 0.00 53 1008.1
20260509231003 21 270 0.0 4.8 0.00 0.00 0.00 53 1008.1
20260509230503 22 229 3.2 8.0 0.00 0.00 0.00 53 1008.1
20260509230012 22 276 3.2 8.0 0.00 0.00 0.00 53 1008.0
20260509225505 22 231 3.2 11.3 0.00 0.00 0.00 53 1008.1
20260509225004 22 251 4.8 12.9 0.00 0.00 0.00 52 1008.0
20260509224515 22 269 9.7 12.9 0.00 0.00 0.00 51 1008.0
20260509224004 22 254 4.8 9.7 0.00 0.00 0.00 52 1008.0
20260509223505 22 227 4.8 9.7 0.00 0.00 0.00 51 1008.1
20260509223013 22 231 4.8 12.9 0.00 0.00 0.00 50 1008.1
20260509222508 22 210 8.0 17.7 0.00 0.00 0.00 50 1008.1
20260509222004 22 245 9.7 17.7 0.00 0.00 0.00 50 1008.1
20260509221511 22 248 6.4 14.5 0.00 0.00 0.00 50 1008.2
20260509221002 22 269 6.4 11.3 0.00 0.00 0.00 50 1008.1
20260509220504 22 168 6.4 11.3 0.00 0.00 0.00 50 1008.1
20260509220017 22 257 4.8 16.1 0.00 0.00 0.00 51 1008.1
20260509215503 22 250 6.4 16.1 0.00 0.00 0.00 50 1008.1
20260509215003 22 220 6.4 14.5 0.00 0.00 0.00 50 1008.1
20260509214514 22 246 6.4 14.5 0.00 0.00 0.00 50 1008.0
20260509214004 22 252 4.8 16.1 0.00 0.00 0.00 50 1008.0
20260509213508 23 231 6.4 16.1 0.00 0.00 0.00 48 1007.9
20260509213016 23 266 8.0 14.5 0.00 0.00 0.00 49 1007.9
20260509212504 23 243 8.0 12.9 0.00 0.00 0.00 48 1007.9
20260509212011 23 236 6.4 12.9 0.00 0.00 0.00 48 1007.8
20260509211511 22 247 6.4 12.9 0.00 0.00 0.00 48 1007.8
20260509211004 22 264 6.4 9.7 0.00 0.00 0.00 50 1007.9
20260509210506 22 248 6.4 9.7 0.00 0.00 0.00 49 1007.9
20260509210020 22 260 6.4 11.3 0.00 0.00 0.00 49 1007.9
20260509205504 22 229 6.4 14.5 0.00 0.00 0.00 48 1007.8
20260509205005 23 277 6.4 19.3 0.00 0.00 0.00 47 1007.7
20260509204514 23 211 6.4 19.3 0.00 0.00 0.00 47 1007.6
20260509204009 23 132 4.8 16.1 0.00 0.00 0.00 46 1007.6
20260509203504 23 194 8.0 16.1 0.00 0.00 0.00 47 1007.4
20260509203008 22 259 6.4 16.1 0.00 0.00 0.00 45 1007.5
20260509202503 23 240 8.0 16.1 0.00 0.00 0.00 47 1007.4
20260509202003 22 214 9.7 20.9 0.00 0.00 0.00 44 1007.5
20260509201507 22 190 11.3 20.9 0.00 0.00 0.00 44 1007.5
20260509201005 22 252 8.0 14.5 0.00 0.00 0.00 44 1007.5
20260509200503 23 264 8.0 19.3 0.00 0.00 0.00 44 1007.5
20260509200008 23 276 8.0 19.3 0.00 0.00 0.00 45 1007.6
20260509195503 23 267 11.3 19.3 0.00 0.00 0.00 43 1007.5
20260509195002 23 263 12.9 19.3 0.00 0.00 0.00 43 1007.6
20260509194506 23 277 8.0 17.7 0.00 0.00 0.00 45 1007.7
20260509194002 23 169 11.3 19.3 0.00 0.00 0.00 46 1007.8
20260509193504 22 188 8.0 19.3 0.00 0.00 0.00 46 1007.9
20260509193006 22 148 9.7 14.5 0.00 0.00 0.00 49 1008.0
20260509192503 21 170 6.4 17.7 0.00 0.00 0.00 49 1008.0
20260509192003 21 243 8.0 17.7 0.00 0.00 0.00 48 1008.1
20260509191505 21 269 8.0 16.1 0.00 0.00 0.00 51 1008.2
20260509191006 21 260 4.8 17.7 0.00 0.00 0.00 50 1008.3
20260509190506 21 264 8.0 19.3 0.00 0.00 0.00 48 1008.4
20260509190017 21 154 8.0 19.3 0.00 0.00 0.00 49 1008.5
20260509185505 21 191 6.4 17.7 0.00 0.00 0.00 48 1008.5
20260509185003 22 217 6.4 22.5 0.00 0.00 0.00 48 1008.6
20260509184521 22 237 11.3 22.5 0.00 0.00 0.00 48 1008.7
20260509184006 21 151 6.4 17.7 0.00 0.00 0.00 49 1008.7
20260509183504 21 250 8.0 17.7 0.00 0.00 0.00 49 1008.8
20260509183005 21 167 4.8 11.3 0.00 0.00 0.00 49 1008.8
20260509182504 21 146 6.4 11.3 0.00 0.00 0.00 51 1008.8
20260509182004 21 179 6.4 12.9 0.00 0.00 0.00 49 1008.9
20260509181506 21 226 6.4 12.9 0.00 0.00 0.00 49 1009.0
20260509181006 21 238 6.4 12.9 0.00 0.00 0.00 49 1009.1
20260509180505 21 264 6.4 19.3 0.00 0.00 0.00 52 1009.2
20260509180016 21 289 8.0 19.3 0.00 0.00 0.00 52 1009.3
20260509175507 21 270 8.0 16.1 0.00 0.00 0.00 51 1009.4
20260509175007 22 243 6.4 14.5 0.00 0.00 0.00 51 1009.5
20260509174512 21 288 8.0 12.9 0.00 0.00 0.00 56 1009.6
20260509174003 21 210 8.0 14.5 0.00 0.00 0.00 53 1009.5
20260509173506 21 264 8.0 14.5 0.00 0.00 0.00 53 1009.6
20260509173015 21 239 6.4 14.5 0.00 0.00 0.00 54 1009.8
20260509172504 20 264 6.4 12.9 0.00 0.00 0.00 55 1009.9
20260509172004 20 294 6.4 12.9 0.00 0.00 0.00 54 1010.0
20260509171505 20 263 4.8 12.9 0.00 0.00 0.00 55 1010.0
20260509171006 20 231 4.8 16.1 0.00 0.00 0.00 56 1010.1
20260509170504 20 268 9.7 16.1 0.00 0.00 0.00 55 1010.1
20260509170006 20 263 8.0 12.9 0.00 0.00 0.00 55 1010.1
20260509165502 20 266 4.8 14.5 0.00 0.00 0.00 55 1010.0
20260509165003 20 283 6.4 14.5 0.00 0.00 0.00 57 1010.0
20260509164514 19 250 3.2 9.7 0.00 0.00 0.00 58 1010.0
20260509164003 19 245 3.2 9.7 0.00 0.00 0.00 58 1010.1
20260509163503 19 259 4.8 14.5 0.00 0.00 0.00 57 1010.1
20260509163019 19 234 6.4 16.1 0.00 0.00 0.00 57 1010.2
20260509162507 19 290 4.8 16.1 0.00 0.00 0.00 57 1010.2
20260509162006 19 268 6.4 11.3 0.00 0.00 0.00 57 1010.1
20260509161518 19 266 4.8 11.3 0.00 0.00 0.00 58 1010.1
20260509161007 19 143 4.8 11.3 0.00 0.00 0.00 57 1010.0
20260509160504 18 262 4.8 11.3 0.00 0.00 0.00 58 1010.1
20260509160006 18 163 6.4 11.3 0.00 0.00 0.00 58 1010.1
20260509155503 18 285 4.8 9.7 0.00 0.00 0.00 57 1010.1
20260509155006 18 274 3.2 9.7 0.00 0.00 0.00 59 1010.1
20260509154507 18 263 3.2 8.0 0.00 0.00 0.00 58 1010.2
20260509154006 18 229 1.6 8.0 0.00 0.00 0.00 57 1010.3
20260509153506 18 257 3.2 9.7 0.00 0.00 0.00 58 1010.3
20260509153020 18 254 4.8 9.7 0.00 0.00 0.00 58 1010.3
20260509152507 17 244 3.2 9.7 0.00 0.00 0.00 58 1010.3
20260509152007 17 246 3.2 9.7 0.00 0.00 0.00 57 1010.4
20260509151516 17 279 3.2 9.7 0.00 0.00 0.00 60 1010.4
20260509151006 17 242 3.2 4.8 0.00 0.00 0.00 57 1010.4
20260509150507 17 273 1.6 6.4 0.00 0.00 0.00 58 1010.6
20260509150016 17 259 3.2 6.4 0.00 0.00 0.00 58 1010.5
20260509145504 17 243 3.2 4.8 0.00 0.00 0.00 58 1010.5
20260509145009 17 233 0.0 4.8 0.00 0.00 0.00 59 1010.5
20260509144508 17 217 0.0 6.4 0.00 0.00 0.00 59 1010.6
20260509144004 17 204 1.6 11.3 0.00 0.00 0.00 58 1010.6
20260509143507 17 251 4.8 11.3 0.00 0.00 0.00 58 1010.5
20260509143033 16 236 3.2 8.0 0.00 0.00 0.00 60 1010.5
20260509142504 16 247 1.6 8.0 0.00 0.00 0.00 61 1010.4
20260509142004 15 274 1.6 8.0 0.00 0.00 0.00 62 1010.4
20260509141523 15 229 3.2 6.4 0.00 0.00 0.00 61 1010.5
20260509141007 15 272 1.6 6.4 0.00 0.00 0.00 62 1010.6
20260509140506 15 226 3.2 6.4 0.00 0.00 0.00 62 1010.6
20260509140016 15 264 3.2 9.7 0.00 0.00 0.00 61 1010.7
20260509135507 15 243 3.2 9.7 0.00 0.00 0.00 59 1010.7
20260509135007 15 235 3.2 6.4 0.00 0.00 0.00 60 1010.7
20260509134521 15 256 1.6 6.4 0.00 0.00 0.00 61 1010.6
20260509134006 15 232 3.2 4.8 0.00 0.00 0.00 60 1010.7
20260509133509 14 251 0.0 6.4 0.00 0.00 0.00 62 1010.7
20260509133019 14 252 1.6 6.4 0.00 0.00 0.00 61 1010.7
20260509132504 14 238 3.2 6.4 0.00 0.00 0.00 62 1010.8
20260509132004 14 264 1.6 6.4 0.00 0.00 0.00 61 1010.9
20260509131512 14 231 1.6 6.4 0.00 0.00 0.00 64 1011.0
20260509131005 14 264 1.6 6.4 0.00 0.00 0.00 63 1010.9
20260509130511 13 257 3.2 9.7 0.00 0.00 0.00 61 1010.9
20260509130019 13 288 4.8 9.7 0.00 0.00 0.00 63 1010.9
20260509125509 13 238 3.2 11.3 0.00 0.00 0.00 63 1011.0
20260509125008 14 277 4.8 11.3 0.00 0.00 0.00 62 1011.0
20260509124519 14 259 4.8 8.0 0.00 0.00 0.00 62 1011.0
20260509124007 14 273 4.8 9.7 0.00 0.00 0.00 62 1011.0
20260509123506 14 275 4.8 9.7 0.00 0.00 0.00 62 1011.1
20260509123019 13 264 4.8 9.7 0.00 0.00 0.00 62 1011.0
20260509122510 13 253 3.2 8.0 0.00 0.00 0.00 63 1010.9
20260509122012 13 269 3.2 8.0 0.00 0.00 0.00 63 1011.0
20260509121533 13 259 3.2 8.0 0.00 0.00 0.00 65 1011.1
20260509121004 13 262 4.8 8.0 0.00 0.00 0.00 66 1011.2
20260509120506 13 264 3.2 6.4 0.00 0.00 0.00 68 1011.2
20260509120016 12 259 3.2 8.0 0.00 0.00 0.00 68 1011.2
20260509115505 12 269 3.2 8.0 0.00 0.00 0.00 70 1011.1
20260509115009 12 259 3.2 6.4 0.00 0.00 0.00 69 1011.2
20260509114540 12 272 1.6 6.4 0.00 0.00 0.00 69 1011.1
20260509114007 11 274 1.6 4.8 0.00 0.00 0.00 71 1011.1
20260509113509 11 233 0.0 1.6 0.00 0.00 0.00 75 1011.1
20260509113023 11 233 0.0 0.0 0.00 0.00 0.00 75 1011.1
20260509112503 11 232 0.0 0.0 0.00 0.00 0.00 76 1011.2
20260509112007 11 233 0.0 0.0 0.00 0.00 0.00 79 1011.1
20260509111506 11 232 0.0 0.0 0.00 0.00 0.00 79 1011.0
20260509111005 11 232 0.0 0.0 0.00 0.00 0.00 77 1011.0
20260509110506 11 233 0.0 0.0 0.00 0.00 0.00 78 1010.9
20260509110014 11 232 0.0 0.0 0.00 0.00 0.00 78 1010.9
20260509105504 10 233 0.0 0.0 0.00 0.00 0.00 77 1010.9
20260509105008 10 233 0.0 0.0 0.00 0.00 0.00 77 1010.8
20260509104520 10 233 0.0 0.0 0.00 0.00 0.00 77 1010.8
20260509104006 10 232 0.0 0.0 0.00 0.00 0.00 77 1010.9
20260509103507 10 233 0.0 0.0 0.00 0.00 0.00 75 1010.9
20260509103021 10 233 0.0 0.0 0.00 0.00 0.00 74 1011.0
20260509102507 10 233 0.0 0.0 0.00 0.00 0.00 74 1011.0
20260509102010 10 232 0.0 0.0 0.00 0.00 0.00 75 1011.0
20260509101524 10 232 0.0 0.0 0.00 0.00 0.00 76 1011.0
20260509101003 10 232 0.0 0.0 0.00 0.00 0.00 76 1010.8
20260509100503 10 232 0.0 0.0 0.00 0.00 0.00 77 1010.9
20260509100008 10 232 0.0 0.0 0.00 0.00 0.00 77 1010.8
20260509095507 10 235 0.0 1.6 0.00 0.00 0.00 76 1010.8
20260509095005 10 235 0.0 3.2 0.00 0.00 0.00 76 1010.8
20260509094512 10 236 0.0 3.2 0.00 0.00 0.00 77 1010.7
20260509094003 10 235 0.0 3.2 0.00 0.00 0.00 76 1010.7
20260509093504 10 235 0.0 3.2 0.00 0.00 0.00 77 1010.8
20260509093018 10 234 0.0 3.2 0.00 0.00 0.00 77 1010.7
20260509092505 10 260 0.0 4.8 0.00 0.00 0.00 77 1010.8
20260509092007 10 270 0.0 4.8 0.00 0.00 0.00 76 1010.8
20260509091521 10 269 0.0 3.2 0.00 0.00 0.00 77 1011.0
20260509091006 10 263 0.0 3.2 0.00 0.00 0.00 76 1011.0
20260509090511 10 269 1.6 3.2 0.00 0.00 0.00 75 1011.0
20260509090050 10 263 0.0 3.2 0.00 0.00 0.00 75 1011.1
20260509085506 10 276 1.6 3.2 0.00 0.00 0.00 74 1011.0
20260509085003 10 259 0.0 3.2 0.00 0.00 0.00 74 1011.1
20260509084510 10 264 1.6 3.2 0.00 0.00 0.00 73 1011.2
20260509084007 10 264 0.0 1.6 0.00 0.00 0.00 73 1011.1
20260509083503 10 243 0.0 1.6 0.00 0.00 0.00 72 1011.2
20260509083038 10 243 0.0 0.0 0.00 0.00 0.00 73 1011.3
20260509082506 10 241 0.0 0.0 0.00 0.00 0.00 73 1011.2
20260509082009 10 241 0.0 0.0 0.00 0.00 0.00 72 1011.2
20260509081527 10 241 0.0 0.0 0.00 0.00 0.00 72 1011.3
20260509081014 10 243 0.0 1.6 0.00 0.00 0.00 70 1011.2
20260509080506 10 243 0.0 1.6 0.00 0.00 0.00 71 1011.2
20260509080024 10 269 0.0 1.6 0.00 0.00 0.00 69 1011.3
20260509075509 10 269 0.0 1.6 0.00 0.00 0.00 68 1011.3
20260509075008 10 242 0.0 0.0 0.00 0.00 0.00 68 1011.3
20260509074534 10 144 0.0 0.0 0.00 0.00 0.00 68 1011.3
20260509074009 11 144 0.0 0.0 0.00 0.00 0.00 68 1011.3
20260509073508 11 144 0.0 0.0 0.00 0.00 0.00 67 1011.4
20260509073018 11 144 0.0 0.0 0.00 0.00 0.00 65 1011.4
20260509072511 11 144 0.0 0.0 0.00 0.00 0.00 63 1011.5
20260509072004 11 144 0.0 0.0 0.00 0.00 0.00 62 1011.4
20260509071522 11 144 0.0 0.0 0.00 0.00 0.00 65 1011.5
20260509071007 11 208 0.0 0.0 0.00 0.00 0.00 61 1011.4
20260509070507 11 208 0.0 1.6 0.00 0.00 0.00 61 1011.5
20260509070032 11 209 0.0 3.2 0.00 0.00 0.00 59 1011.6
20260509065513 11 209 0.0 3.2 0.00 0.00 0.00 66 1011.9
20260509065010 11 206 0.0 3.2 0.00 0.00 0.00 64 1012.0